Location: Audignicourt
(49.4788°N, 3.1340°E)
Time: 11:49:40
(UTC+00:00)

Ariane Rocket - Pass Details

Date: 15 May 2026
Orbit: 755 x 763 km, 98.4° (Epoch: 9 June)

Event Time Altitude Azimuth Distance (km) Brightness Sun altitude
Exits shadow 20:59:04 17° 151° (SSE) 1,854 4.4 -12.4°
Maximum altitude 21:02:57 68° 72° (ENE) 825 3.1 -12.8°
Drops below altitude 10° 21:07:59 10° 350° (N) 2,309 6.5 -13.3°
Sets 21:10:19 0° 348° (NNW) 3,240 7.5 -13.5°
